Shirahamamaru — JG4872 — position and weather

sailwx.info

Track history (hours):
 
Tides and Currents Weather Stations Pressure Air Temp Water Temp Dewpoint Dewpoint Depression Visibility Wind Speed Wind Dir Waves Ship Positions

Shirahamamaru

Last reported at 2014-Oct-21 00:26 UTC. Time now 2014-Oct-21 00:46 UTC.
Position N 35°13' E 139°43'.

Length 79 m; draft 3.2 m.

Type: Passenger vessel. MMSI: 431000239.

Date/timePositionNaut miles runAvg speedWind from/ knotsBaromVisibWave heightAir tempDewpointWater temp
2014-Oct-21 00:26N 35°13' E 139°43'3 3.4
2014-Oct-20 23:33N 35°12' E 139°46'2 1.7
2014-Oct-20 22:32N 35°13' E 139°44'3 2.8
2014-Oct-20 21:32N 35°11' E 139°47'2 0.2
2014-Oct-20 10:32N 35°12' E 139°45'3 2.8
2014-Oct-20 09:33N 35°11' E 139°48'5 4.5
2014-Oct-20 08:28N 35°13' E 139°43'6 6.2
2014-Oct-20 07:32N 35°10' E 139°49'6 5.3
2014-Oct-20 06:27N 35°13' E 139°43'4 4.3
2014-Oct-20 05:33N 35°11' E 139°47'4 3.2
2014-Oct-20 04:26N 35°13' E 139°43'5 5.2
2014-Oct-20 03:32N 35°11' E 139°48'5 4.5
2014-Oct-20 02:27N 35°13' E 139°43'5 5.6
2014-Oct-20 01:33N 35°11' E 139°48'5 4.8
2014-Oct-20 00:30N 35°13' E 139°43'3 3.1
2014-Oct-19 23:34N 35°12' E 139°46'1 1.5
2014-Oct-19 22:33N 35°13' E 139°44'3 2.5
2014-Oct-19 21:33N 35°11' E 139°47'1 0.1
2014-Oct-19 10:33N 35°12' E 139°46'2 2.3
2014-Oct-19 09:33N 35°11' E 139°48'5 4.4
2014-Oct-19 08:29N 35°13' E 139°43'6 6.4
2014-Oct-19 07:33N 35°10' E 139°49'6 5.5
2014-Oct-19 06:30N 35°13' E 139°43'4 3.8
2014-Oct-19 05:33N 35°11' E 139°47'4 3.2
2014-Oct-19 04:27N 35°13' E 139°43'6 6.2
2014-Oct-19 03:33N 35°10' E 139°49'6 5.7
2014-Oct-19 02:32N 35°13' E 139°43'5 5.2
2014-Oct-19 01:32N 35°11' E 139°48'5 5.1
2014-Oct-19 00:30N 35°13' E 139°43'3 3.0
2014-Oct-18 23:33N 35°12' E 139°46'2 1.6
2014-Oct-18 22:32N 35°13' E 139°44'2 2.5
2014-Oct-18 21:33N 35°11' E 139°47'1 0.1
2014-Oct-18 10:33N 35°12' E 139°46'2 2.2
2014-Oct-18 09:33N 35°11' E 139°48'5 4.2
2014-Oct-18 08:25N 35°13' E 139°43'6 6.6
2014-Oct-18 07:32N 35°10' E 139°49'6 5.3
2014-Oct-18 06:26N 35°13' E 139°43'4 4.3
2014-Oct-18 05:33N 35°11' E 139°47'4 3.2
2014-Oct-18 04:26N 35°13' E 139°43'5 5.6
2014-Oct-18 03:32N 35°11' E 139°48'5 4.8
2014-Oct-18 02:29N 35°13' E 139°43'5 5.2
2014-Oct-18 01:33N 35°11' E 139°48'5 4.4
2014-Oct-18 00:26N 35°13' E 139°43'3 3.5
2014-Oct-17 23:32N 35°12' E 139°46'2 2.2
2014-Oct-17 22:30N 35°13' E 139°44'3 3.2
2014-Oct-17 21:32N 35°11' E 139°47'1 0.1
2014-Oct-17 10:32N 35°12' E 139°46'2 2.4
2014-Oct-17 09:33N 35°11' E 139°48'5 4.2
2014-Oct-17 08:25N 35°13' E 139°43'6 6.6
2014-Oct-17 07:33N 35°10' E 139°49'6 4.6
2014-Oct-17 06:17N 35°13' E 139°43'4 5.2
2014-Oct-17 05:33N 35°12' E 139°47'3 2.7
2014-Oct-17 04:31N 35°13' E 139°44'4 3.9
2014-Oct-17 03:33N 35°11' E 139°48'5 4.5
2014-Oct-17 02:31N 35°13' E 139°43'5 5.1
2014-Oct-17 01:32N 35°11' E 139°48'5 4.9
2014-Oct-17 00:31N 35°13' E 139°43'3 2.9
2014-Oct-16 23:33N 35°12' E 139°46'2 1.6
2014-Oct-16 22:33N 35°13' E 139°44'3 2.7
2014-Oct-16 21:33N 35°11' E 139°47'2 0.2
2014-Oct-16 10:33N 35°13' E 139°46'3 2.6
2014-Oct-16 09:33N 35°11' E 139°48'5 4.4
2014-Oct-16 08:28N 35°13' E 139°43'6 6.3
2014-Oct-16 07:33N 35°10' E 139°49'6 5.1
2014-Oct-16 06:24N 35°13' E 139°43'4 4.5
2014-Oct-16 05:33N 35°11' E 139°47'3 2.5
2014-Oct-16 04:32N 35°13' E 139°44'4 3.8
2014-Oct-16 03:32N 35°11' E 139°48'5 4.6
2014-Oct-16 02:27N 35°13' E 139°43'5 5.5
2014-Oct-16 01:34N 35°11' E 139°48'3 0.2
2014-Oct-15 10:31N 35°12' E 139°45'3 2.6
2014-Oct-15 09:33N 35°11' E 139°48'5 4.5
2014-Oct-15 08:30N 35°13' E 139°43'6 6.0
2014-Oct-15 07:32N 35°10' E 139°49'5 5.5
2014-Oct-15 06:33N 35°13' E 139°43'5 4.3
2014-Oct-15 05:27N 35°11' E 139°48'4 4.0
2014-Oct-15 04:32N 35°13' E 139°44'4 4.0
2014-Oct-15 03:30N 35°10' E 139°49'5 5.1
2014-Oct-15 02:26N 35°13' E 139°43'5 5.6
2014-Oct-15 01:32N 35°11' E 139°48'5 4.7
2014-Oct-15 00:28N 35°13' E 139°43'3 3.6
2014-Oct-14 23:33N 35°12' E 139°47'2 1.9
2014-Oct-14 22:33N 35°13' E 139°45'2 2.4
2014-Oct-14 21:33N 35°12' E 139°47'0 0.1
2014-Oct-14 20:33N 35°12' E 139°47'3 2.7
2014-Oct-14 19:33N 35°13' E 139°45'0 0.0
2014-Oct-14 18:33N 35°13' E 139°45'0 0.0
2014-Oct-14 17:33N 35°13' E 139°45'0 0.0
2014-Oct-14 16:33N 35°13' E 139°45'0 0.0
2014-Oct-14 15:33N 35°13' E 139°45'0 0.0
2014-Oct-14 14:33N 35°13' E 139°45'0 0.0
2014-Oct-14 13:33N 35°13' E 139°45'0 0.0
2014-Oct-14 12:33N 35°13' E 139°45'0 0.0
2014-Oct-14 11:33N 35°13' E 139°45'0 0.0
2014-Oct-14 10:33N 35°13' E 139°45'0 0.0
2014-Oct-14 09:33N 35°13' E 139°45'0 0.0
2014-Oct-14 08:33N 35°13' E 139°45'0 0.0
2014-Oct-14 07:31N 35°13' E 139°45'0 0.0
2014-Oct-14 06:33N 35°13' E 139°45'0 0.0
2014-Oct-14 05:33N 35°13' E 139°45'0 0.0
2014-Oct-14 04:33N 35°13' E 139°45'0 0.0
2014-Oct-14 03:33N 35°13' E 139°45'4 4.2
2014-Oct-14 02:33N 35°10' E 139°48'0 0.0
2014-Oct-14 01:33N 35°10' E 139°48'0 0.1
2014-Oct-14 00:33N 35°10' E 139°48'9 7.8
2014-Oct-13 23:24N 35°18' E 139°42'2 1.5
2014-Oct-13 22:16N 35°19' E 139°41'0 0.0
2014-Oct-13 21:18N 35°19' E 139°41'0 0.0
2014-Oct-13 20:31N 35°19' E 139°41'0 0.0
2014-Oct-13 19:33N 35°19' E 139°41'0 0.0
2014-Oct-13 18:32N 35°19' E 139°41'0 0.0
2014-Oct-13 17:14N 35°19' E 139°41'0 0.0
2014-Oct-13 16:20N 35°19' E 139°41'0 0.0
2014-Oct-13 15:12N 35°19' E 139°41'0 0.0
2014-Oct-13 14:25N 35°19' E 139°41'6 0.3
2014-Oct-12 20:33N 35°14' E 139°44'0 0.0
2014-Oct-12 18:31N 35°14' E 139°44'0 0.0
2014-Oct-12 17:19N 35°14' E 139°44'0 0.0
2014-Oct-12 16:22N 35°14' E 139°44'0 0.0
2014-Oct-12 13:16N 35°14' E 139°44'0 0.0
2014-Oct-12 12:13N 35°14' E 139°44'0 0.0
2014-Oct-12 11:31N 35°14' E 139°44'5 5.2
2014-Oct-12 10:33N 35°10' E 139°49'4 3.5
2014-Oct-12 09:31N 35°12' E 139°45'3 3.0
2014-Oct-12 08:33N 35°11' E 139°48'4 3.9
2014-Oct-12 07:32N 35°13' E 139°44'3 2.7
2014-Oct-12 06:33N 35°11' E 139°47'3 2.8
2014-Oct-12 05:32N 35°13' E 139°44'2 1.8
2014-Oct-12 04:33N 35°12' E 139°46'1 0.5
2014-Oct-12 03:33N 35°12' E 139°45'2 1.5
2014-Oct-12 02:32N 35°11' E 139°47'3 3.1
2014-Oct-12 01:33N 35°13' E 139°44'3 2.9
2014-Oct-12 00:32N 35°11' E 139°47'3 2.7
2014-Oct-11 23:31N 35°13' E 139°44'2 1.7
2014-Oct-11 22:33N 35°12' E 139°46'2 1.5
2014-Oct-11 21:32N 35°13' E 139°44'1 0.1
2014-Oct-11 11:16N 35°13' E 139°43'6 7.9
2014-Oct-11 10:33N 35°10' E 139°49'4 3.6
2014-Oct-11 09:31N 35°12' E 139°45'2 2.3
2014-Oct-11 08:32N 35°11' E 139°47'3 3.2
2014-Oct-11 07:31N 35°13' E 139°44'3 2.9
2014-Oct-11 06:33N 35°12' E 139°47'3 2.5
2014-Oct-11 05:33N 35°13' E 139°44'2 1.7
2014-Oct-11 04:33N 35°12' E 139°46'1 0.5
2014-Oct-11 03:33N 35°12' E 139°46'1 1.4
2014-Oct-11 02:33N 35°11' E 139°47'3 2.5
2014-Oct-11 01:32N 35°13' E 139°44'2 2.5
2014-Oct-11 00:33N 35°11' E 139°47'  
Track history (hours):
 
Tides and Currents Weather Stations Pressure Air Temp Water Temp Dewpoint Dewpoint Depression Visibility Wind Speed Wind Dir Waves Ship Positions

Shirahamamaru

Last reported at 2014-Oct-21 00:26 UTC. Time now 2014-Oct-21 00:46 UTC.
Position N 35°13' E 139°43'.

Length 79 m; draft 3.2 m.

Type: Passenger vessel. MMSI: 431000239.

Date/timePositionNaut miles runAvg speedWind from/ knotsBaromVisibWave heightAir tempDewpointWater temp
2014-Oct-21 00:26N 35°13' E 139°43'3 3.4
2014-Oct-20 23:33N 35°12' E 139°46'2 1.7
2014-Oct-20 22:32N 35°13' E 139°44'3 2.8
2014-Oct-20 21:32N 35°11' E 139°47'2 0.2
2014-Oct-20 10:32N 35°12' E 139°45'3 2.8
2014-Oct-20 09:33N 35°11' E 139°48'5 4.5
2014-Oct-20 08:28N 35°13' E 139°43'6 6.2
2014-Oct-20 07:32N 35°10' E 139°49'6 5.3
2014-Oct-20 06:27N 35°13' E 139°43'4 4.3
2014-Oct-20 05:33N 35°11' E 139°47'4 3.2
2014-Oct-20 04:26N 35°13' E 139°43'5 5.2
2014-Oct-20 03:32N 35°11' E 139°48'5 4.5
2014-Oct-20 02:27N 35°13' E 139°43'5 5.6
2014-Oct-20 01:33N 35°11' E 139°48'5 4.8
2014-Oct-20 00:30N 35°13' E 139°43'3 3.1
2014-Oct-19 23:34N 35°12' E 139°46'1 1.5
2014-Oct-19 22:33N 35°13' E 139°44'3 2.5
2014-Oct-19 21:33N 35°11' E 139°47'1 0.1
2014-Oct-19 10:33N 35°12' E 139°46'2 2.3
2014-Oct-19 09:33N 35°11' E 139°48'5 4.4
2014-Oct-19 08:29N 35°13' E 139°43'6 6.4
2014-Oct-19 07:33N 35°10' E 139°49'6 5.5
2014-Oct-19 06:30N 35°13' E 139°43'4 3.8
2014-Oct-19 05:33N 35°11' E 139°47'4 3.2
2014-Oct-19 04:27N 35°13' E 139°43'6 6.2
2014-Oct-19 03:33N 35°10' E 139°49'6 5.7
2014-Oct-19 02:32N 35°13' E 139°43'5 5.2
2014-Oct-19 01:32N 35°11' E 139°48'5 5.1
2014-Oct-19 00:30N 35°13' E 139°43'3 3.0
2014-Oct-18 23:33N 35°12' E 139°46'2 1.6
2014-Oct-18 22:32N 35°13' E 139°44'2 2.5
2014-Oct-18 21:33N 35°11' E 139°47'1 0.1
2014-Oct-18 10:33N 35°12' E 139°46'2 2.2
2014-Oct-18 09:33N 35°11' E 139°48'5 4.2
2014-Oct-18 08:25N 35°13' E 139°43'6 6.6
2014-Oct-18 07:32N 35°10' E 139°49'6 5.3
2014-Oct-18 06:26N 35°13' E 139°43'4 4.3
2014-Oct-18 05:33N 35°11' E 139°47'4 3.2
2014-Oct-18 04:26N 35°13' E 139°43'5 5.6
2014-Oct-18 03:32N 35°11' E 139°48'5 4.8
2014-Oct-18 02:29N 35°13' E 139°43'5 5.2
2014-Oct-18 01:33N 35°11' E 139°48'5 4.4
2014-Oct-18 00:26N 35°13' E 139°43'3 3.5
2014-Oct-17 23:32N 35°12' E 139°46'2 2.2
2014-Oct-17 22:30N 35°13' E 139°44'3 3.2
2014-Oct-17 21:32N 35°11' E 139°47'1 0.1
2014-Oct-17 10:32N 35°12' E 139°46'2 2.4
2014-Oct-17 09:33N 35°11' E 139°48'5 4.2
2014-Oct-17 08:25N 35°13' E 139°43'6 6.6
2014-Oct-17 07:33N 35°10' E 139°49'6 4.6
2014-Oct-17 06:17N 35°13' E 139°43'4 5.2
2014-Oct-17 05:33N 35°12' E 139°47'3 2.7
2014-Oct-17 04:31N 35°13' E 139°44'4 3.9
2014-Oct-17 03:33N 35°11' E 139°48'5 4.5
2014-Oct-17 02:31N 35°13' E 139°43'5 5.1
2014-Oct-17 01:32N 35°11' E 139°48'5 4.9
2014-Oct-17 00:31N 35°13' E 139°43'3 2.9
2014-Oct-16 23:33N 35°12' E 139°46'2 1.6
2014-Oct-16 22:33N 35°13' E 139°44'3 2.7
2014-Oct-16 21:33N 35°11' E 139°47'2 0.2
2014-Oct-16 10:33N 35°13' E 139°46'3 2.6
2014-Oct-16 09:33N 35°11' E 139°48'5 4.4
2014-Oct-16 08:28N 35°13' E 139°43'6 6.3
2014-Oct-16 07:33N 35°10' E 139°49'6 5.1
2014-Oct-16 06:24N 35°13' E 139°43'4 4.5
2014-Oct-16 05:33N 35°11' E 139°47'3 2.5
2014-Oct-16 04:32N 35°13' E 139°44'4 3.8
2014-Oct-16 03:32N 35°11' E 139°48'5 4.6
2014-Oct-16 02:27N 35°13' E 139°43'5 5.5
2014-Oct-16 01:34N 35°11' E 139°48'3 0.2
2014-Oct-15 10:31N 35°12' E 139°45'3 2.6
2014-Oct-15 09:33N 35°11' E 139°48'5 4.5
2014-Oct-15 08:30N 35°13' E 139°43'6 6.0
2014-Oct-15 07:32N 35°10' E 139°49'5 5.5
2014-Oct-15 06:33N 35°13' E 139°43'5 4.3
2014-Oct-15 05:27N 35°11' E 139°48'4 4.0
2014-Oct-15 04:32N 35°13' E 139°44'4 4.0
2014-Oct-15 03:30N 35°10' E 139°49'5 5.1
2014-Oct-15 02:26N 35°13' E 139°43'5 5.6
2014-Oct-15 01:32N 35°11' E 139°48'5 4.7
2014-Oct-15 00:28N 35°13' E 139°43'3 3.6
2014-Oct-14 23:33N 35°12' E 139°47'2 1.9
2014-Oct-14 22:33N 35°13' E 139°45'2 2.4
2014-Oct-14 21:33N 35°12' E 139°47'0 0.1
2014-Oct-14 20:33N 35°12' E 139°47'3 2.7
2014-Oct-14 19:33N 35°13' E 139°45'0 0.0
2014-Oct-14 18:33N 35°13' E 139°45'0 0.0
2014-Oct-14 17:33N 35°13' E 139°45'0 0.0
2014-Oct-14 16:33N 35°13' E 139°45'0 0.0
2014-Oct-14 15:33N 35°13' E 139°45'0 0.0
2014-Oct-14 14:33N 35°13' E 139°45'0 0.0
2014-Oct-14 13:33N 35°13' E 139°45'0 0.0
2014-Oct-14 12:33N 35°13' E 139°45'0 0.0
2014-Oct-14 11:33N 35°13' E 139°45'0 0.0
2014-Oct-14 10:33N 35°13' E 139°45'0 0.0
2014-Oct-14 09:33N 35°13' E 139°45'0 0.0
2014-Oct-14 08:33N 35°13' E 139°45'0 0.0
2014-Oct-14 07:31N 35°13' E 139°45'0 0.0
2014-Oct-14 06:33N 35°13' E 139°45'0 0.0
2014-Oct-14 05:33N 35°13' E 139°45'0 0.0
2014-Oct-14 04:33N 35°13' E 139°45'0 0.0
2014-Oct-14 03:33N 35°13' E 139°45'4 4.2
2014-Oct-14 02:33N 35°10' E 139°48'0 0.0
2014-Oct-14 01:33N 35°10' E 139°48'0 0.1
2014-Oct-14 00:33N 35°10' E 139°48'9 7.8
2014-Oct-13 23:24N 35°18' E 139°42'2 1.5
2014-Oct-13 22:16N 35°19' E 139°41'0 0.0
2014-Oct-13 21:18N 35°19' E 139°41'0 0.0
2014-Oct-13 20:31N 35°19' E 139°41'0 0.0
2014-Oct-13 19:33N 35°19' E 139°41'0 0.0
2014-Oct-13 18:32N 35°19' E 139°41'0 0.0
2014-Oct-13 17:14N 35°19' E 139°41'0 0.0
2014-Oct-13 16:20N 35°19' E 139°41'0 0.0
2014-Oct-13 15:12N 35°19' E 139°41'0 0.0
2014-Oct-13 14:25N 35°19' E 139°41'6 0.3
2014-Oct-12 20:33N 35°14' E 139°44'0 0.0
2014-Oct-12 18:31N 35°14' E 139°44'0 0.0
2014-Oct-12 17:19N 35°14' E 139°44'0 0.0
2014-Oct-12 16:22N 35°14' E 139°44'0 0.0
2014-Oct-12 13:16N 35°14' E 139°44'0 0.0
2014-Oct-12 12:13N 35°14' E 139°44'0 0.0
2014-Oct-12 11:31N 35°14' E 139°44'5 5.2
2014-Oct-12 10:33N 35°10' E 139°49'4 3.5
2014-Oct-12 09:31N 35°12' E 139°45'3 3.0
2014-Oct-12 08:33N 35°11' E 139°48'4 3.9
2014-Oct-12 07:32N 35°13' E 139°44'3 2.7
2014-Oct-12 06:33N 35°11' E 139°47'3 2.8
2014-Oct-12 05:32N 35°13' E 139°44'2 1.8
2014-Oct-12 04:33N 35°12' E 139°46'1 0.5
2014-Oct-12 03:33N 35°12' E 139°45'2 1.5
2014-Oct-12 02:32N 35°11' E 139°47'3 3.1
2014-Oct-12 01:33N 35°13' E 139°44'3 2.9
2014-Oct-12 00:32N 35°11' E 139°47'3 2.7
2014-Oct-11 23:31N 35°13' E 139°44'2 1.7
2014-Oct-11 22:33N 35°12' E 139°46'2 1.5
2014-Oct-11 21:32N 35°13' E 139°44'1 0.1
2014-Oct-11 11:16N 35°13' E 139°43'6 7.9
2014-Oct-11 10:33N 35°10' E 139°49'4 3.6
2014-Oct-11 09:31N 35°12' E 139°45'2 2.3
2014-Oct-11 08:32N 35°11' E 139°47'3 3.2
2014-Oct-11 07:31N 35°13' E 139°44'3 2.9
2014-Oct-11 06:33N 35°12' E 139°47'3 2.5
2014-Oct-11 05:33N 35°13' E 139°44'2 1.7
2014-Oct-11 04:33N 35°12' E 139°46'1 0.5
2014-Oct-11 03:33N 35°12' E 139°46'1 1.4
2014-Oct-11 02:33N 35°11' E 139°47'3 2.5
2014-Oct-11 01:32N 35°13' E 139°44'2 2.5
2014-Oct-11 00:33N 35°11' E 139°47'  

Dump ship's entire track history